SCP
0 0 0 0 0 0 0 0 0 0 0 0 0 0 0 0 0 0 0 0 0 0 0 0 0 0 0 0 0 0 0 0 0 0 0 0 0 0
0 0 0 0 0 0 0 0 0 0 0 0 0 0 0 0 0 0 0 0 0 0 0 0 0 0 0 0 0 0 0 0 0 0 0 0 0 0
0 0 0 0 0 0 0 0 0 0 0 0 0 0 -0 -0 0 -0 -0 -0 -0 -0 0 0 0 0 0 0 0 0 0 0 0 0 0 0 0 0
0 0 0 0 0 0 0 0 0 0 0 0 0 0 0 0 0 0 0 0 -0 -0 0 0 0 0 0 0 0 0 0 0 0 0 0 0 0 0
0 0 0 -0 0 0 0 0 0 0 0 0 0 0 0 0 0 0 0 0 0 0 0 0 0 0 0 0 0 0 0 0 0 0 0 0 0 0
0 0 -0 -0 -0 0 0 0 0 0 0 0 0 0 0 0 0 0 0 0 0 0 0 0 0 0 0 0 0 0 0 0 0 0 0 0 0 0
0 0 0 0 -0 0 0 0 0 0 0 0 0 0 0 0 0 0 0 0 0 0 0 0 0 0 0 0 0 0 0 0 0 0 0 0 0 0
0 0 0 0 0 0 0 0 -0 0 0 0 0 0 0 0 0 0 0 0 0 -0 0 0 0 0 0 0 0 0 0 0 0 0 0 0 0 0
0 0 0 0 0 0 0 0 0 0 0 0 0 0 0 0 0 0 0 0 0 0 0 0 0 0 0 0 0 0 0 0 0 0 0 0 0 0
0 0 0 0 -0 0 0 0 0 0 0 0 0 0 0 0 0 0 0 0 0 0 0 0 0 0 0 0 0 0 0 0 0 0 0 0 0 0
0 0 0 0 -0 0 0 0 0 0 0 0 0 0 0 0 0 0 0 0 0 0 0 0 0 0 0 0 0 0 0 0 0 0 0 0 0 0
0 0 0 -0 0 0 0 0 0 0 0 0 0 0 0 0 0 0 0 0 0 0 0 0 0 0 -0 -0 0 0 0 0 0 0 0 0 0 0
0 0 0 0 0 0 0 0 0 0 0 0 0 0 0 0 0 0 0 0 0 0 0 0 0 0 0 0 0 0 0 0 0 0 0 0 0 0
0 0 0 0 0 0 0 0 0 0 0 0 0 0 0 0 0 0 0 0 0 0 0 0 0 0 0 0 0 0 0 0 0 0 0 0 0 0
0 0 -0 -0 -0 0 0 0 0 0 0 0 0 0 0 0 0 0 0 0 0 0 0 0 0 0 0 0 0 0 0 0 0 0 0 0 0 0
-0 -0 -0 -0 -0 -0 0 0 0 0 0 0 0 0 0 0 0 0 0 0 0 0 0 0 0 0 0 0 0 0 0 0 0 0 0 0 0 0
-0 -0 -0 0 0 0 0 0 0 0 0 0 0 0 0 0 0 0 0 0 0 0 0 0 0 0 0 0 0 0 0 0 0 0 0 0 0 0
-0 -0 -0 0 0 -0 -0 0 0 -0 0 0 0 0 0 0 0 0 0 0 0 0 0 0 0 0 0 0 0 0 0 0 -0 0 0 0 0 0
-0 -0 -0 -0 -0 -0 0 0 -0 0 0 0 0 0 0 0 0 0 0 0 0 0 0 0 0 0 -0 0 0 0 -0 -0 -0 0 0 0 0 0
-0 -0 -0 -0 -0 -0 -0 0 0 0 0 0 0 0 0 0 0 0 0 0 0 0 0 0 0 0 -0 -0 0 0 0 -0 -0 0 -0 0 0 0
0 -0 -0 -0 -0 -0 0 0 0 0 0 0 0 0 0 0 0 0 0 0 0 0 0 0 0 0 -0 -0 -0 -0 -0 -0 0 0 0 0 0 0
0 0 0 0 0 0 -0 0 0 -0 0 0 0 0 0 0 0 0 0 0 0 0 0 0 0 0 -0 -0 -0 -0 -0 -0 0 0 0 0 0 0
0 0 0 0 0 0 0 0 0 0 -0 0 0 0 0 0 0 0 0 0 0 0 0 0 0 0 -0 0 -0 -0 -0 -0 0 0 0 0 0 0
Wind_Speed_500mb
60 60 60 59 59 58 56 58 62 55 56 61 56 43 43 35 27 33 37 47 55 58 59 59 61 59 57 56 55 54 53 52 44 47 45 54 70 79
69 72 71 69 65 62 61 59 58 61 64 59 69 71 69 58 55 53 54 59 66 69 70 68 69 66 61 59 61 61 58 56 51 42 42 44 45 62
67 73 78 78 80 74 68 66 65 67 76 78 79 83 88 87 83 81 82 82 81 78 77 78 72 69 65 60 62 64 61 57 54 51 46 45 48 53
64 66 52 60 81 80 78 75 75 76 79 80 72 76 78 74 74 78 76 83 85 83 82 75 71 68 68 64 61 63 66 66 59 57 52 48 50 58
77 80 86 85 70 64 82 85 79 76 75 81 81 78 75 74 70 69 70 73 75 69 71 72 71 73 69 65 63 64 69 75 75 70 65 57 51 52
66 72 77 80 86 81 72 70 89 81 74 77 81 76 73 77 71 70 70 67 70 57 63 70 69 68 71 72 74 71 74 78 84 84 80 71 64 58
83 83 83 85 77 63 79 87 71 85 76 77 81 77 74 76 72 68 67 65 66 63 72 70 65 68 72 73 73 71 74 78 77 81 82 82 76 68
85 83 81 79 73 67 65 67 79 77 84 85 79 79 75 66 67 70 68 66 69 58 45 60 57 69 71 71 71 73 77 77 81 82 82 86 87 83
72 69 82 80 82 83 78 69 70 77 80 91 84 85 74 65 61 66 69 71 77 70 71 94 76 82 77 70 68 73 76 77 82 83 83 85 88 92
88 87 86 89 90 85 81 80 75 77 82 85 89 92 77 65 64 67 72 78 82 80 72 94 77 85 75 70 72 72 71 74 75 77 83 88 89 90
86 81 72 74 92 86 83 84 79 78 76 73 84 78 69 63 62 61 64 67 84 83 70 76 76 81 77 73 71 71 71 72 75 78 84 84 87 98
90 94 97 96 96 93 86 83 78 75 72 75 72 77 64 64 64 66 67 70 70 76 66 58 52 43 50 80 67 60 73 78 80 80 80 89 100 112
95 101 103 97 92 85 82 81 79 71 73 82 88 69 59 60 63 64 63 68 70 77 68 65 71 74 74 92 92 86 87 86 88 86 88 100 119 118
94 106 108 99 95 87 81 77 68 62 69 82 64 57 56 57 62 60 54 54 61 72 72 70 75 72 73 87 101 95 96 98 99 102 111 120 123 119
97 107 113 105 85 72 62 52 49 59 63 49 49 49 45 42 36 38 43 50 55 57 55 53 60 65 72 83 94 103 103 105 103 107 111 119 116 108
109 119 93 55 38 36 20 23 28 41 33 33 30 26 24 28 36 34 35 37 40 46 38 38 46 49 63 73 80 98 93 96 100 102 111 113 106 107
103 101 93 52 37 23 9 4 12 17 22 22 20 19 23 24 23 22 26 28 34 38 38 34 35 43 52 63 71 72 74 81 84 99 101 96 97 101
98 94 105 45 39 15 9 11 11 13 12 9 9 11 11 12 12 14 17 20 25 31 33 32 33 39 52 53 40 49 58 74 85 86 81 93 84 88
91 99 101 85 66 20 10 4 4 11 10 12 9 8 10 4 3 9 9 14 21 27 29 27 32 37 53 59 64 47 58 72 76 86 88 77 75 80
74 88 91 88 78 52 50 49 33 28 30 27 26 23 18 17 15 16 14 16 22 27 33 29 31 38 46 54 63 61 36 49 64 74 45 53 67 78
62 69 78 74 71 63 48 40 42 38 29 27 25 22 19 22 24 23 21 20 23 30 37 39 39 36 37 40 46 59 48 34 40 32 8 36 60 83
51 53 57 59 59 56 56 47 39 33 35 36 35 27 22 25 25 27 30 32 29 32 37 38 40 44 40 42 50 50 50 46 36 18 19 30 60 53
46 45 45 45 47 48 45 43 40 32 36 33 40 40 35 36 33 25 30 33 34 34 41 43 42 43 42 43 45 46 41 33 24 11 14 34 55 57
Wind_Direction_500mb
299 299 300 299 294 287 281 273 272 280 278 277 281 277 267 261 245 228 236 242 248 252 259 264 269 267 266 264 261 257 256 259 257 255 247 242 238 236
299 296 296 297 297 294 288 280 272 269 270 272 272 274 274 268 256 255 250 250 252 255 259 265 266 265 265 260 257 255 257 260 258 249 253 256 251 240
297 298 293 293 291 290 289 283 274 267 270 273 272 272 274 275 270 264 264 262 257 257 260 270 266 264 258 255 257 259 257 249 247 251 249 253 255 249
298 281 297 297 283 280 278 280 278 273 271 272 273 277 277 279 281 276 268 261 262 262 264 265 264 262 258 254 256 256 255 253 249 246 249 253 261 251
302 303 298 296 288 293 275 272 270 272 270 271 274 276 278 283 285 281 280 277 270 268 265 262 260 260 263 262 262 258 256 248 248 251 252 252 256 258
307 309 307 308 306 291 291 282 269 263 266 269 268 274 277 282 283 284 284 284 285 283 266 262 262 262 261 260 258 260 259 257 256 256 252 252 257 259
305 305 304 303 304 300 292 286 281 261 261 267 265 267 270 276 277 283 284 287 286 279 276 275 270 264 261 261 261 259 258 256 257 255 254 250 244 246
308 304 302 302 302 299 299 289 284 279 259 262 264 266 270 268 272 279 281 284 287 287 280 276 270 266 265 264 264 264 263 260 257 255 259 257 251 247
307 306 303 300 296 299 298 294 285 280 274 255 259 265 269 265 268 271 274 275 276 276 279 283 281 277 275 272 266 263 261 259 257 256 258 260 261 262
307 304 301 301 299 299 301 297 286 281 271 266 249 261 270 271 267 268 272 276 277 275 275 279 283 282 286 276 267 265 261 262 263 262 259 256 253 260
314 311 306 296 295 299 300 299 289 277 273 272 250 250 262 263 263 265 265 270 272 275 277 279 283 287 286 272 269 274 273 268 267 268 262 253 255 265
314 310 305 304 298 298 299 297 285 272 274 261 251 252 252 257 260 261 263 262 264 275 280 268 277 281 293 283 285 283 283 278 277 273 264 262 266 276
314 313 309 304 301 297 292 289 270 262 264 253 255 245 251 255 262 258 254 257 259 262 261 263 272 274 273 281 287 287 287 286 290 284 277 278 280 275
315 314 312 311 307 298 289 275 261 260 258 244 232 236 249 257 264 259 254 254 256 259 263 266 270 273 276 281 282 289 291 293 294 291 291 289 284 276
316 316 315 311 305 297 283 268 249 254 228 224 236 249 257 259 254 254 256 261 262 264 268 267 268 271 269 272 280 284 291 295 295 292 292 289 281 275
329 328 328 318 318 334 305 272 238 220 229 242 253 253 245 248 253 257 260 263 268 276 276 267 267 268 271 274 279 282 287 286 295 294 295 290 278 267
337 339 345 334 317 313 325 244 223 226 243 243 234 242 243 246 251 253 259 268 272 286 291 288 279 273 282 285 279 280 289 292 294 297 296 283 270 256
349 351 360 359 5 332 299 265 253 253 240 208 196 219 235 246 258 262 261 276 292 306 300 300 304 305 306 301 292 295 300 303 301 305 289 279 250 240
4 3 7 13 34 23 306 188 125 103 115 114 112 89 40 24 329 332 301 305 313 321 324 313 316 317 318 306 317 321 314 307 306 300 299 275 230 211
6 8 6 17 22 37 57 69 70 78 76 79 82 71 53 33 22 11 351 336 337 334 336 337 327 325 316 312 314 317 322 313 315 312 288 219 210 199
359 7 8 9 23 32 37 44 53 53 43 32 31 33 29 27 21 14 6 352 346 349 345 340 336 326 323 327 328 326 331 311 318 324 193 166 166 167
350 358 7 6 8 17 38 34 41 33 33 33 31 31 22 16 14 14 15 6 359 350 349 346 347 350 351 344 339 337 334 328 305 261 184 151 157 158
339 342 354 2 4 1 6 27 30 12 7 11 15 14 11 9 6 15 13 11 3 1 357 355 356 359 356 354 350 347 346 342 337 327 194 169 178 182
Wind_Speed_850mb
60 60 60 59 59 58 56 58 62 55 56 61 56 43 43 35 27 33 37 47 55 58 59 59 61 59 57 56 55 54 53 52 44 47 45 54 70 79
69 72 71 69 65 62 61 59 58 61 64 59 69 71 69 58 55 53 54 59 66 69 70 68 69 66 61 59 61 61 58 56 51 42 42 44 45 62
67 73 78 78 80 74 68 66 65 67 76 78 79 83 88 87 83 81 82 82 81 78 77 78 72 69 65 60 62 64 61 57 54 51 46 45 48 53
64 66 52 60 81 80 78 75 75 76 79 80 72 76 78 74 74 78 76 83 85 83 82 75 71 68 68 64 61 63 66 66 59 57 52 48 50 58
77 80 86 85 70 64 82 85 79 76 75 81 81 78 75 74 70 69 70 73 75 69 71 72 71 73 69 65 63 64 69 75 75 70 65 57 51 52
66 72 77 80 86 81 72 70 89 81 74 77 81 76 73 77 71 70 70 67 70 57 63 70 69 68 71 72 74 71 74 78 84 84 80 71 64 58
83 83 83 85 77 63 79 87 71 85 76 77 81 77 74 76 72 68 67 65 66 63 72 70 65 68 72 73 73 71 74 78 77 81 82 82 76 68
85 83 81 79 73 67 65 67 79 77 84 85 79 79 75 66 67 70 68 66 69 58 45 60 57 69 71 71 71 73 77 77 81 82 82 86 87 83
72 69 82 80 82 83 78 69 70 77 80 91 84 85 74 65 61 66 69 71 77 70 71 94 76 82 77 70 68 73 76 77 82 83 83 85 88 92
88 87 86 89 90 85 81 80 75 77 82 85 89 92 77 65 64 67 72 78 82 80 72 94 77 85 75 70 72 72 71 74 75 77 83 88 89 90
86 81 72 74 92 86 83 84 79 78 76 73 84 78 69 63 62 61 64 67 84 83 70 76 76 81 77 73 71 71 71 72 75 78 84 84 87 98
90 94 97 96 96 93 86 83 78 75 72 75 72 77 64 64 64 66 67 70 70 76 66 58 52 43 50 80 67 60 73 78 80 80 80 89 100 112
95 101 103 97 92 85 82 81 79 71 73 82 88 69 59 60 63 64 63 68 70 77 68 65 71 74 74 92 92 86 87 86 88 86 88 100 119 118
94 106 108 99 95 87 81 77 68 62 69 82 64 57 56 57 62 60 54 54 61 72 72 70 75 72 73 87 101 95 96 98 99 102 111 120 123 119
97 107 113 105 85 72 62 52 49 59 63 49 49 49 45 42 36 38 43 50 55 57 55 53 60 65 72 83 94 103 103 105 103 107 111 119 116 108
109 119 93 55 38 36 20 23 28 41 33 33 30 26 24 28 36 34 35 37 40 46 38 38 46 49 63 73 80 98 93 96 100 102 111 113 106 107
103 101 93 52 37 23 9 4 12 17 22 22 20 19 23 24 23 22 26 28 34 38 38 34 35 43 52 63 71 72 74 81 84 99 101 96 97 101
98 94 105 45 39 15 9 11 11 13 12 9 9 11 11 12 12 14 17 20 25 31 33 32 33 39 52 53 40 49 58 74 85 86 81 93 84 88
91 99 101 85 66 20 10 4 4 11 10 12 9 8 10 4 3 9 9 14 21 27 29 27 32 37 53 59 64 47 58 72 76 86 88 77 75 80
74 88 91 88 78 52 50 49 33 28 30 27 26 23 18 17 15 16 14 16 22 27 33 29 31 38 46 54 63 61 36 49 64 74 45 53 67 78
62 69 78 74 71 63 48 40 42 38 29 27 25 22 19 22 24 23 21 20 23 30 37 39 39 36 37 40 46 59 48 34 40 32 8 36 60 83
51 53 57 59 59 56 56 47 39 33 35 36 35 27 22 25 25 27 30 32 29 32 37 38 40 44 40 42 50 50 50 46 36 18 19 30 60 53
46 45 45 45 47 48 45 43 40 32 36 33 40 40 35 36 33 25 30 33 34 34 41 43 42 43 42 43 45 46 41 33 24 11 14 34 55 57
Wind_Direction_850mb
299 299 300 299 294 287 281 273 272 280 278 277 281 277 267 261 245 228 236 242 248 252 259 264 269 267 266 264 261 257 256 259 257 255 247 242 238 236
299 296 296 297 297 294 288 280 272 269 270 272 272 274 274 268 256 255 250 250 252 255 259 265 266 265 265 260 257 255 257 260 258 249 253 256 251 240
297 298 293 293 291 290 289 283 274 267 270 273 272 272 274 275 270 264 264 262 257 257 260 270 266 264 258 255 257 259 257 249 247 251 249 253 255 249
298 281 297 297 283 280 278 280 278 273 271 272 273 277 277 279 281 276 268 261 262 262 264 265 264 262 258 254 256 256 255 253 249 246 249 253 261 251
302 303 298 296 288 293 275 272 270 272 270 271 274 276 278 283 285 281 280 277 270 268 265 262 260 260 263 262 262 258 256 248 248 251 252 252 256 258
307 309 307 308 306 291 291 282 269 263 266 269 268 274 277 282 283 284 284 284 285 283 266 262 262 262 261 260 258 260 259 257 256 256 252 252 257 259
305 305 304 303 304 300 292 286 281 261 261 267 265 267 270 276 277 283 284 287 286 279 276 275 270 264 261 261 261 259 258 256 257 255 254 250 244 246
308 304 302 302 302 299 299 289 284 279 259 262 264 266 270 268 272 279 281 284 287 287 280 276 270 266 265 264 264 264 263 260 257 255 259 257 251 247
307 306 303 300 296 299 298 294 285 280 274 255 259 265 269 265 268 271 274 275 276 276 279 283 281 277 275 272 266 263 261 259 257 256 258 260 261 262
307 304 301 301 299 299 301 297 286 281 271 266 249 261 270 271 267 268 272 276 277 275 275 279 283 282 286 276 267 265 261 262 263 262 259 256 253 260
314 311 306 296 295 299 300 299 289 277 273 272 250 250 262 263 263 265 265 270 272 275 277 279 283 287 286 272 269 274 273 268 267 268 262 253 255 265
314 310 305 304 298 298 299 297 285 272 274 261 251 252 252 257 260 261 263 262 264 275 280 268 277 281 293 283 285 283 283 278 277 273 264 262 266 276
314 313 309 304 301 297 292 289 270 262 264 253 255 245 251 255 262 258 254 257 259 262 261 263 272 274 273 281 287 287 287 286 290 284 277 278 280 275
315 314 312 311 307 298 289 275 261 260 258 244 232 236 249 257 264 259 254 254 256 259 263 266 270 273 276 281 282 289 291 293 294 291 291 289 284 276
316 316 315 311 305 297 283 268 249 254 228 224 236 249 257 259 254 254 256 261 262 264 268 267 268 271 269 272 280 284 291 295 295 292 292 289 281 275
329 328 328 318 318 334 305 272 238 220 229 242 253 253 245 248 253 257 260 263 268 276 276 267 267 268 271 274 279 282 287 286 295 294 295 290 278 267
337 339 345 334 317 313 325 244 223 226 243 243 234 242 243 246 251 253 259 268 272 286 291 288 279 273 282 285 279 280 289 292 294 297 296 283 270 256
349 351 360 359 5 332 299 265 253 253 240 208 196 219 235 246 258 262 261 276 292 306 300 300 304 305 306 301 292 295 300 303 301 305 289 279 250 240
4 3 7 13 34 23 306 188 125 103 115 114 112 89 40 24 329 332 301 305 313 321 324 313 316 317 318 306 317 321 314 307 306 300 299 275 230 211
6 8 6 17 22 37 57 69 70 78 76 79 82 71 53 33 22 11 351 336 337 334 336 337 327 325 316 312 314 317 322 313 315 312 288 219 210 199
359 7 8 9 23 32 37 44 53 53 43 32 31 33 29 27 21 14 6 352 346 349 345 340 336 326 323 327 328 326 331 311 318 324 193 166 166 167
350 358 7 6 8 17 38 34 41 33 33 33 31 31 22 16 14 14 15 6 359 350 349 346 347 350 351 344 339 337 334 328 305 261 184 151 157 158
339 342 354 2 4 1 6 27 30 12 7 11 15 14 11 9 6 15 13 11 3 1 357 355 356 359 356 354 350 347 346 342 337 327 194 169 178 182